Location: Kershaw
(34.5481°N, 80.5823°W)
Time: 04:30:48
(UTC+00:00)

Altair - Pass Details

Date: 12 October 2022
Orbit: 1501 x 1682 km, 47.2° (Epoch: 01 December)

Event Time Altitude Azimuth Distance (km) Brightness Sun altitude
Rises 06:36:09 0° 219° (SW) 4,651 - -56.2°
Reaches altitude 10° 06:39:10 10° 217° (SW) 3,687 - -55.8°
Maximum altitude 06:48:21 66° 137° (SE) 1,687 - -54.5°
Exits shadow 06:54:06 27° 64° (ENE) 2,687 8.9 -53.6°
Drops below altitude 10° 06:57:56 10° 58° (ENE) 3,836 10.0 -53.1°
Sets 07:01:08 0° 56° (NE) 4,847 10.7 -52.6°
